Time,TemperatureF,DewpointF,PressureIn,WindDirection,WindDirectionDegrees,WindSpeedMPH,WindSpeedGustMPH,Humidity,HourlyPrecipIn,Conditions,Clouds,dailyrainin,SoftwareType,DateUTC
2013-06-19 00:04:00,62.1,55.5,28.94,SSW,208,8.1,8.1,79,0.00,,---,0.00,VWS V13.01,2013-06-19 04:04:00,
2013-06-19 00:09:00,62.1,55.5,28.94,SSW,208,8.1,8.1,79,0.00,,---,0.00,VWS V13.01,2013-06-19 04:09:00,
2013-06-19 00:14:00,61.7,54.8,28.94,SSW,208,8.1,8.1,78,0.00,,---,0.00,VWS V13.01,2013-06-19 04:14:00,
2013-06-19 00:19:00,61.9,55.0,28.94,SSW,208,8.1,8.1,78,0.00,,---,0.00,VWS V13.01,2013-06-19 04:19:00,
2013-06-19 00:24:00,61.7,53.7,28.94,SSW,208,8.1,8.1,75,0.00,,---,0.00,VWS V13.01,2013-06-19 04:24:00,
2013-06-19 00:29:00,61.5,53.5,28.94,SSW,208,8.1,8.1,75,0.00,,---,0.00,VWS V13.01,2013-06-19 04:29:00,
2013-06-19 00:34:00,61.5,53.5,28.94,SSW,208,8.1,8.1,75,0.00,,---,0.00,VWS V13.01,2013-06-19 04:34:00,
2013-06-19 00:39:00,61.5,53.5,28.94,SSW,208,8.1,8.1,75,0.00,,---,0.00,VWS V13.01,2013-06-19 04:39:00,
2013-06-19 00:44:00,61.0,51.9,28.94,SSW,208,8.1,8.1,72,0.00,,---,0.00,VWS V13.01,2013-06-19 04:44:00,
2013-06-19 00:49:00,61.0,51.5,28.94,SSW,208,8.1,8.1,71,0.00,,---,0.00,VWS V13.01,2013-06-19 04:49:00,
2013-06-19 00:54:00,61.0,51.9,28.94,SSW,208,8.1,8.1,72,0.00,,---,0.00,VWS V13.01,2013-06-19 04:54:00,
2013-06-19 00:59:00,61.0,52.3,28.94,SSW,208,8.1,8.1,73,0.00,,---,0.00,VWS V13.01,2013-06-19 04:59:00,
2013-06-19 01:04:00,60.4,51.0,28.94,SSW,208,8.1,8.1,71,0.00,,---,0.00,VWS V13.01,2013-06-19 05:04:00,
2013-06-19 01:09:00,60.6,50.8,28.94,SSW,208,8.1,8.1,70,0.00,,---,0.00,VWS V13.01,2013-06-19 05:09:00,
2013-06-19 01:14:00,60.6,50.4,28.94,SSW,208,8.1,8.1,69,0.00,,---,0.00,VWS V13.01,2013-06-19 05:14:00,
2013-06-19 01:19:00,60.3,49.3,28.94,SSW,208,8.1,8.1,67,0.00,,---,0.00,VWS V13.01,2013-06-19 05:19:00,
2013-06-19 01:24:00,60.1,48.7,28.94,SSW,208,8.1,8.1,66,0.00,,---,0.00,VWS V13.01,2013-06-19 05:24:00,
2013-06-19 01:29:00,60.3,49.3,28.94,SSW,208,8.1,8.1,67,0.00,,---,0.00,VWS V13.01,2013-06-19 05:29:00,
2013-06-19 01:34:00,59.9,48.5,28.94,SSW,208,8.1,8.1,66,0.00,,---,0.00,VWS V13.01,2013-06-19 05:34:00,
2013-06-19 01:44:00,60.1,49.5,28.94,SSW,208,8.1,8.1,68,0.00,,---,0.00,VWS V13.01,2013-06-19 05:44:00,
2013-06-19 01:49:00,59.7,48.8,28.94,SSW,208,8.1,8.1,67,0.00,,---,0.00,VWS V13.01,2013-06-19 05:49:00,
2013-06-19 01:54:00,59.9,49.7,28.94,SSW,208,8.1,8.1,69,0.00,,---,0.00,VWS V13.01,2013-06-19 05:54:00,
2013-06-19 01:59:00,59.9,49.7,28.94,SSW,208,8.1,8.1,69,0.00,,---,0.00,VWS V13.01,2013-06-19 05:59:00,
2013-06-19 02:04:00,59.7,49.9,28.94,SSW,208,8.1,8.1,70,0.00,,---,0.00,VWS V13.01,2013-06-19 06:04:00,
2013-06-19 02:09:00,59.7,50.7,28.94,SSW,208,8.1,8.1,72,0.00,,---,0.00,VWS V13.01,2013-06-19 06:09:00,
2013-06-19 02:14:00,59.5,50.5,28.94,SSW,208,8.1,8.1,72,0.00,,---,0.00,VWS V13.01,2013-06-19 06:14:00,
2013-06-19 02:19:00,59.5,50.1,28.94,SSW,208,8.1,8.1,71,0.00,,---,0.00,VWS V13.01,2013-06-19 06:19:00,
2013-06-19 02:24:00,59.4,49.6,28.94,SSW,208,8.1,8.1,70,0.00,,---,0.00,VWS V13.01,2013-06-19 06:24:00,
2013-06-19 02:29:00,59.2,49.8,28.94,SSW,208,8.1,8.1,71,0.00,,---,0.00,VWS V13.01,2013-06-19 06:29:00,
2013-06-19 02:34:00,59.2,49.8,28.94,SSW,208,8.1,8.1,71,0.00,,---,0.00,VWS V13.01,2013-06-19 06:34:00,
2013-06-19 02:39:00,58.8,49.8,28.94,SSW,208,8.1,8.1,72,0.00,,---,0.00,VWS V13.01,2013-06-19 06:39:00,
2013-06-19 02:44:00,58.6,49.7,28.94,SSW,208,8.1,8.1,72,0.00,,---,0.00,VWS V13.01,2013-06-19 06:44:00,
2013-06-19 02:49:00,58.6,49.7,28.94,SSW,208,8.1,8.1,72,0.00,,---,0.00,VWS V13.01,2013-06-19 06:49:00,
2013-06-19 02:54:00,58.6,50.0,28.94,SSW,208,8.1,8.1,73,0.00,,---,0.00,VWS V13.01,2013-06-19 06:54:00,
2013-06-19 02:59:00,58.5,49.8,28.94,SSW,208,8.1,8.1,73,0.00,,---,0.00,VWS V13.01,2013-06-19 06:59:00,
2013-06-19 03:04:00,58.3,48.9,28.94,SSW,208,8.1,8.1,71,0.00,,---,0.00,VWS V13.01,2013-06-19 07:04:00,
2013-06-19 03:09:00,58.1,48.4,28.94,SSW,208,8.1,8.1,70,0.00,,---,0.00,VWS V13.01,2013-06-19 07:09:00,
2013-06-19 03:14:00,57.9,47.8,28.94,SSW,208,8.1,8.1,69,0.00,,---,0.00,VWS V13.01,2013-06-19 07:14:00,
2013-06-19 03:19:00,57.6,47.5,28.94,SSW,208,8.1,8.1,69,0.00,,---,0.00,VWS V13.01,2013-06-19 07:19:00,
2013-06-19 03:24:00,57.6,47.9,28.94,SSW,208,8.1,8.1,70,0.00,,---,0.00,VWS V13.01,2013-06-19 07:24:00,
2013-06-19 03:29:00,57.2,47.9,28.94,SSW,208,8.1,8.1,71,0.00,,---,0.00,VWS V13.01,2013-06-19 07:29:00,
2013-06-19 03:34:00,57.2,47.9,28.94,SSW,208,8.1,8.1,71,0.00,,---,0.00,VWS V13.01,2013-06-19 07:34:00,
2013-06-19 03:39:00,57.2,48.6,28.94,SSW,208,8.1,8.1,73,0.00,,---,0.00,VWS V13.01,2013-06-19 07:39:00,
2013-06-19 03:44:00,57.2,48.6,28.94,SSW,208,8.1,8.1,73,0.00,,---,0.00,VWS V13.01,2013-06-19 07:44:00,
2013-06-19 03:49:00,57.2,48.6,28.94,SSW,208,8.1,8.1,73,0.00,,---,0.00,VWS V13.01,2013-06-19 07:49:00,
2013-06-19 03:54:00,57.2,48.6,28.94,SSW,208,8.1,8.1,73,0.00,,---,0.00,VWS V13.01,2013-06-19 07:54:00,
2013-06-19 03:59:00,57.0,48.5,28.94,SSW,208,8.1,8.1,73,0.00,,---,0.00,VWS V13.01,2013-06-19 07:59:00,
2013-06-19 04:09:00,57.0,48.5,28.94,SSW,208,8.1,8.1,73,0.00,,---,0.00,VWS V13.01,2013-06-19 08:09:00,
2013-06-19 04:14:00,56.7,48.1,28.94,SSW,208,8.1,8.1,73,0.00,,---,0.00,VWS V13.01,2013-06-19 08:14:00,
2013-06-19 04:19:00,56.7,48.1,28.94,SSW,208,8.1,8.1,73,0.00,,---,0.00,VWS V13.01,2013-06-19 08:19:00,
2013-06-19 04:24:00,56.5,48.3,28.94,SSW,208,8.1,8.1,74,0.00,,---,0.00,VWS V13.01,2013-06-19 08:24:00,
2013-06-19 04:29:00,56.7,48.1,28.94,SSW,208,8.1,8.1,73,0.00,,---,0.00,VWS V13.01,2013-06-19 08:29:00,
2013-06-19 04:34:00,56.5,47.6,28.94,SSW,208,8.1,8.1,72,0.00,,---,0.00,VWS V13.01,2013-06-19 08:34:00,
2013-06-19 04:39:00,56.5,47.6,28.94,SSW,208,8.1,8.1,72,0.00,,---,0.00,VWS V13.01,2013-06-19 08:39:00,
2013-06-19 04:44:00,56.5,47.6,28.94,SSW,208,8.1,8.1,72,0.00,,---,0.00,VWS V13.01,2013-06-19 08:44:00,
2013-06-19 04:49:00,56.3,47.0,28.94,SSW,208,8.1,8.1,71,0.00,,---,0.00,VWS V13.01,2013-06-19 08:49:00,
2013-06-19 04:54:00,56.3,47.4,28.94,SSW,208,8.1,8.1,72,0.00,,---,0.00,VWS V13.01,2013-06-19 08:54:00,
2013-06-19 04:59:00,56.1,47.2,28.94,SSW,208,8.1,8.1,72,0.00,,---,0.00,VWS V13.01,2013-06-19 08:59:00,
2013-06-19 05:04:00,56.1,47.2,28.94,SSW,208,8.1,8.1,72,0.00,,---,0.00,VWS V13.01,2013-06-19 09:04:00,
2013-06-19 05:09:00,56.1,47.2,28.94,SSW,208,8.1,8.1,72,0.00,,---,0.00,VWS V13.01,2013-06-19 09:09:00,
2013-06-19 05:14:00,55.9,47.1,28.94,SSW,208,8.1,8.1,72,0.00,,---,0.00,VWS V13.01,2013-06-19 09:14:00,
2013-06-19 05:19:00,56.1,47.6,28.94,SSW,208,8.1,8.1,73,0.00,,---,0.00,VWS V13.01,2013-06-19 09:19:00,
2013-06-19 05:24:00,56.3,47.4,28.94,SSW,208,8.1,8.1,72,0.00,,---,0.00,VWS V13.01,2013-06-19 09:24:00,
2013-06-19 05:29:00,56.3,47.0,28.94,SSW,208,8.1,8.1,71,0.00,,---,0.00,VWS V13.01,2013-06-19 09:29:00,
2013-06-19 05:34:00,56.5,46.8,28.94,SSW,208,8.1,8.1,70,0.00,,---,0.00,VWS V13.01,2013-06-19 09:34:00,
2013-06-19 05:39:00,56.7,46.6,28.94,SSW,208,8.1,8.1,69,0.00,,---,0.00,VWS V13.01,2013-06-19 09:39:00,
2013-06-19 05:44:00,56.8,47.2,28.94,SSW,208,8.1,8.1,70,0.00,,---,0.00,VWS V13.01,2013-06-19 09:44:00,
2013-06-19 05:49:00,56.8,46.4,28.94,SSW,208,8.1,8.1,68,0.00,,---,0.00,VWS V13.01,2013-06-19 09:49:00,
2013-06-19 05:54:00,57.2,46.8,28.94,SSW,208,8.1,8.1,68,0.00,,---,0.00,VWS V13.01,2013-06-19 09:54:00,
2013-06-19 06:04:00,57.4,46.1,28.94,SSW,208,8.1,8.1,66,0.00,,---,0.00,VWS V13.01,2013-06-19 10:04:00,
2013-06-19 06:09:00,57.6,45.1,28.94,SSW,208,8.1,8.1,63,0.00,,---,0.00,VWS V13.01,2013-06-19 10:09:00,
2013-06-19 06:14:00,57.4,44.1,28.94,SSW,208,8.1,8.1,61,0.00,,---,0.00,VWS V13.01,2013-06-19 10:14:00,
2013-06-19 06:19:00,57.6,43.8,28.97,SSW,208,8.1,8.1,60,0.00,,---,0.00,VWS V13.01,2013-06-19 10:19:00,
2013-06-19 06:24:00,57.7,43.5,28.97,SSW,208,8.1,8.1,59,0.00,,---,0.00,VWS V13.01,2013-06-19 10:24:00,
2013-06-19 06:29:00,59.4,41.8,28.97,SSW,208,8.1,8.1,52,0.00,,---,0.00,VWS V13.01,2013-06-19 10:29:00,
2013-06-19 06:34:00,61.3,39.3,28.97,SSW,208,8.1,8.1,44,0.00,,---,0.00,VWS V13.01,2013-06-19 10:34:00,
2013-06-19 06:39:00,61.3,38.1,28.97,SSW,208,8.1,8.1,42,0.00,,---,0.00,VWS V13.01,2013-06-19 10:39:00,
2013-06-19 06:49:00,60.1,38.7,28.97,SSW,208,8.1,8.1,45,0.00,,---,0.00,VWS V13.01,2013-06-19 10:49:00,
2013-06-19 06:54:00,60.1,39.2,28.97,SSW,208,8.1,8.1,46,0.00,,---,0.00,VWS V13.01,2013-06-19 10:54:00,
2013-06-19 06:59:00,60.6,39.2,28.97,SSW,208,8.1,8.1,45,0.00,,---,0.00,VWS V13.01,2013-06-19 10:59:00,
2013-06-19 07:04:00,59.9,38.0,28.97,SSW,208,8.1,8.1,44,0.00,,---,0.00,VWS V13.01,2013-06-19 11:04:00,
2013-06-19 07:09:00,60.1,38.7,28.97,SSW,208,8.1,8.1,45,0.00,,---,0.00,VWS V13.01,2013-06-19 11:09:00,
2013-06-19 07:14:00,59.9,38.0,28.97,SSW,208,8.1,8.1,44,0.00,,---,0.00,VWS V13.01,2013-06-19 11:14:00,
2013-06-19 07:19:00,60.4,38.4,28.97,SSW,208,8.1,8.1,44,0.00,,---,0.00,VWS V13.01,2013-06-19 11:19:00,
2013-06-19 07:24:00,60.4,37.3,28.97,SSW,208,8.1,8.1,42,0.00,,---,0.00,VWS V13.01,2013-06-19 11:24:00,
2013-06-19 07:29:00,60.1,36.3,28.97,SSW,208,8.1,8.1,41,0.00,,---,0.00,VWS V13.01,2013-06-19 11:29:00,
2013-06-19 07:34:00,60.6,38.0,29.00,SSW,208,8.1,8.1,43,0.00,,---,0.00,VWS V13.01,2013-06-19 11:34:00,
2013-06-19 07:39:00,61.9,37.3,29.00,SSW,208,8.1,8.1,40,0.00,,---,0.00,VWS V13.01,2013-06-19 11:39:00,
2013-06-19 07:44:00,62.1,35.5,29.00,SSW,208,8.1,8.1,37,0.00,,---,0.00,VWS V13.01,2013-06-19 11:44:00,
2013-06-19 07:49:00,63.0,35.6,29.00,SSW,208,8.1,8.1,36,0.00,,---,0.00,VWS V13.01,2013-06-19 11:49:00,
2013-06-19 07:54:00,61.7,34.5,29.00,SSW,208,8.1,8.1,36,0.00,,---,0.00,VWS V13.01,2013-06-19 11:54:00,
2013-06-19 07:59:00,61.3,34.2,29.00,SSW,208,8.1,8.1,36,0.00,,---,0.00,VWS V13.01,2013-06-19 11:59:00,
2013-06-19 08:04:00,61.7,34.5,29.00,SSW,208,8.1,8.1,36,0.00,,---,0.00,VWS V13.01,2013-06-19 12:04:00,
2013-06-19 08:09:00,61.3,34.2,29.00,SSW,208,8.1,8.1,36,0.00,,---,0.00,VWS V13.01,2013-06-19 12:09:00,
2013-06-19 08:14:00,61.9,34.0,29.00,SSW,208,8.1,8.1,35,0.00,,---,0.00,VWS V13.01,2013-06-19 12:14:00,
2013-06-19 08:19:00,62.2,35.0,29.00,SSW,208,8.1,8.1,36,0.00,,---,0.00,VWS V13.01,2013-06-19 12:19:00,
2013-06-19 08:24:00,63.3,35.9,29.00,SSW,208,8.1,8.1,36,0.00,,---,0.00,VWS V13.01,2013-06-19 12:24:00,
2013-06-19 08:29:00,63.1,34.3,29.00,SSW,208,8.1,8.1,34,0.00,,---,0.00,VWS V13.01,2013-06-19 12:29:00,
2013-06-19 08:34:00,63.5,34.7,29.00,SSW,208,8.1,8.1,34,0.00,,---,0.00,VWS V13.01,2013-06-19 12:34:00,
2013-06-19 08:39:00,63.0,34.2,29.00,SSW,208,8.1,8.1,34,0.00,,---,0.00,VWS V13.01,2013-06-19 12:39:00,
2013-06-19 08:44:00,63.3,34.5,29.00,SSW,208,8.1,8.1,34,0.00,,---,0.00,VWS V13.01,2013-06-19 12:44:00,
2013-06-19 08:49:00,64.0,35.1,29.03,SSW,208,8.1,8.1,34,0.00,,---,0.00,VWS V13.01,2013-06-19 12:49:00,
2013-06-19 08:54:00,65.1,35.3,29.03,SSW,208,8.1,8.1,33,0.00,,---,0.00,VWS V13.01,2013-06-19 12:54:00,
2013-06-19 08:59:00,65.5,34.9,29.03,SSW,208,8.1,8.1,32,0.00,,---,0.00,VWS V13.01,2013-06-19 12:59:00,
2013-06-19 09:04:00,65.8,33.6,29.03,SSW,208,8.1,8.1,30,0.00,,---,0.00,VWS V13.01,2013-06-19 13:04:00,
2013-06-19 09:09:00,64.9,31.1,29.03,SSW,208,8.1,8.1,28,0.00,,---,0.00,VWS V13.01,2013-06-19 13:09:00,
2013-06-19 09:14:00,65.7,35.8,29.03,SSW,208,8.1,8.1,33,0.00,,---,0.00,VWS V13.01,2013-06-19 13:14:00,
2013-06-19 09:19:00,66.0,32.0,29.03,SSW,208,8.1,8.1,28,0.00,,---,0.00,VWS V13.01,2013-06-19 13:19:00,
2013-06-19 09:24:00,66.2,33.9,29.03,SSW,208,8.1,8.1,30,0.00,,---,0.00,VWS V13.01,2013-06-19 13:24:00,
2013-06-19 09:29:00,66.7,32.6,29.03,SSW,208,8.1,8.1,28,0.00,,---,0.00,VWS V13.01,2013-06-19 13:29:00,
2013-06-19 09:39:00,67.3,30.3,29.03,SSW,208,8.1,8.1,25,0.00,,---,0.00,VWS V13.01,2013-06-19 13:39:00,
2013-06-19 09:44:00,67.1,31.1,29.03,SSW,208,8.1,8.1,26,0.00,,---,0.00,VWS V13.01,2013-06-19 13:44:00,
2013-06-19 09:49:00,67.5,31.4,29.03,SSW,208,8.1,8.1,26,0.00,,---,0.00,VWS V13.01,2013-06-19 13:49:00,
2013-06-19 09:54:00,67.5,31.4,29.03,SSW,208,8.1,8.1,26,0.00,,---,0.00,VWS V13.01,2013-06-19 13:54:00,
2013-06-19 09:59:00,68.0,30.9,29.03,SSW,208,8.1,8.1,25,0.00,,---,0.00,VWS V13.01,2013-06-19 13:59:00,
2013-06-19 10:04:00,68.7,31.5,29.03,SSW,208,8.1,8.1,25,0.00,,---,0.00,VWS V13.01,2013-06-19 14:04:00,
2013-06-19 10:09:00,68.7,29.5,29.03,SSW,208,8.1,8.1,23,0.00,,---,0.00,VWS V13.01,2013-06-19 14:09:00,
2013-06-19 10:14:00,68.0,29.9,29.03,SSW,208,8.1,8.1,24,0.00,,---,0.00,VWS V13.01,2013-06-19 14:14:00,
2013-06-19 10:19:00,68.2,29.0,29.06,SSW,208,8.1,8.1,23,0.00,,---,0.00,VWS V13.01,2013-06-19 14:19:00,
2013-06-19 10:29:00,68.2,29.0,29.06,SSW,208,8.1,8.1,23,0.00,,---,0.00,VWS V13.01,2013-06-19 14:29:00,
2013-06-19 10:34:00,69.1,29.8,29.03,SSW,208,8.1,8.1,23,0.00,,---,0.00,VWS V13.01,2013-06-19 14:34:00,
2013-06-19 10:39:00,69.3,28.8,29.03,SSW,208,8.1,8.1,22,0.00,,---,0.00,VWS V13.01,2013-06-19 14:39:00,
2013-06-19 10:44:00,69.4,30.1,29.03,SSW,208,8.1,8.1,23,0.00,,---,0.00,VWS V13.01,2013-06-19 14:44:00,
2013-06-19 10:49:00,69.8,29.3,29.06,SSW,208,8.1,8.1,22,0.00,,---,0.00,VWS V13.01,2013-06-19 14:49:00,
2013-06-19 10:54:00,69.4,29.0,29.06,SSW,208,8.1,8.1,22,0.00,,---,0.00,VWS V13.01,2013-06-19 14:54:00,
2013-06-19 10:59:00,69.6,29.1,29.06,SSW,208,8.1,8.1,22,0.00,,---,0.00,VWS V13.01,2013-06-19 14:59:00,
2013-06-19 11:04:00,70.2,30.7,29.03,SSW,208,8.1,8.1,23,0.00,,---,0.00,VWS V13.01,2013-06-19 15:04:00,
2013-06-19 11:09:00,70.5,31.0,29.03,SSW,208,8.1,8.1,23,0.00,,---,0.00,VWS V13.01,2013-06-19 15:09:00,
2013-06-19 11:14:00,70.3,29.7,29.03,SSW,208,8.1,8.1,22,0.00,,---,0.00,VWS V13.01,2013-06-19 15:14:00,
2013-06-19 11:24:00,69.3,26.5,29.06,SSW,208,8.1,8.1,20,0.00,,---,0.00,VWS V13.01,2013-06-19 15:24:00,
2013-06-19 11:29:00,70.0,25.9,29.06,SSW,208,8.1,8.1,19,0.00,,---,0.00,VWS V13.01,2013-06-19 15:29:00,
2013-06-19 11:34:00,70.5,26.3,29.06,SSW,208,8.1,8.1,19,0.00,,---,0.00,VWS V13.01,2013-06-19 15:34:00,
2013-06-19 11:39:00,70.3,26.2,29.06,SSW,208,8.1,8.1,19,0.00,,---,0.00,VWS V13.01,2013-06-19 15:39:00,
2013-06-19 11:44:00,70.5,26.3,29.06,SSW,208,8.1,8.1,19,0.00,,---,0.00,VWS V13.01,2013-06-19 15:44:00,
2013-06-19 11:49:00,70.7,26.5,29.06,SSW,208,8.1,8.1,19,0.00,,---,0.00,VWS V13.01,2013-06-19 15:49:00,
2013-06-19 11:54:00,70.5,23.6,29.06,SSW,208,8.1,8.1,17,0.00,,---,0.00,VWS V13.01,2013-06-19 15:54:00,
2013-06-19 11:59:00,70.5,23.6,29.06,SSW,208,8.1,8.1,17,0.00,,---,0.00,VWS V13.01,2013-06-19 15:59:00,
2013-06-19 12:04:00,71.1,26.8,29.06,SSW,208,8.1,8.1,19,0.00,,---,0.00,VWS V13.01,2013-06-19 16:04:00,
2013-06-19 12:09:00,72.0,27.5,29.06,SSW,208,8.1,8.1,19,0.00,,---,0.00,VWS V13.01,2013-06-19 16:09:00,
2013-06-19 12:19:00,71.1,30.3,29.06,SSW,208,8.1,8.1,22,0.00,,---,0.00,VWS V13.01,2013-06-19 16:19:00,
2013-06-19 12:24:00,71.2,30.5,29.06,SSW,208,8.1,8.1,22,0.00,,---,0.00,VWS V13.01,2013-06-19 16:24:00,
2013-06-19 12:29:00,71.8,29.8,29.06,SSW,208,8.1,8.1,21,0.00,,---,0.00,VWS V13.01,2013-06-19 16:29:00,
2013-06-19 12:34:00,71.4,27.0,29.06,SSW,208,8.1,8.1,19,0.00,,---,0.00,VWS V13.01,2013-06-19 16:34:00,
2013-06-19 12:39:00,71.1,30.3,29.06,SSW,208,8.1,8.1,22,0.00,,---,0.00,VWS V13.01,2013-06-19 16:39:00,
2013-06-19 12:44:00,71.2,26.9,29.06,SSW,208,8.1,8.1,19,0.00,,---,0.00,VWS V13.01,2013-06-19 16:44:00,
2013-06-19 12:49:00,71.6,29.6,29.06,SSW,208,8.1,8.1,21,0.00,,---,0.00,VWS V13.01,2013-06-19 16:49:00,
2013-06-19 12:54:00,72.1,30.1,29.06,SSW,208,8.1,8.1,21,0.00,,---,0.00,VWS V13.01,2013-06-19 16:54:00,
2013-06-19 12:59:00,71.2,26.9,29.06,SSW,208,8.1,8.1,19,0.00,,---,0.00,VWS V13.01,2013-06-19 16:59:00,
2013-06-19 13:04:00,70.9,30.2,29.06,SSW,208,8.1,8.1,22,0.00,,---,0.00,VWS V13.01,2013-06-19 17:04:00,
2013-06-19 13:09:00,71.4,30.6,29.06,SSW,208,8.1,8.1,22,0.00,,---,0.00,VWS V13.01,2013-06-19 17:09:00,
2013-06-19 13:14:00,72.0,29.9,29.06,SSW,208,8.1,8.1,21,0.00,,---,0.00,VWS V13.01,2013-06-19 17:14:00,
2013-06-19 13:19:00,72.0,27.5,29.06,SSW,208,8.1,8.1,19,0.00,,---,0.00,VWS V13.01,2013-06-19 17:19:00,
2013-06-19 13:24:00,71.6,29.6,29.06,SSW,208,8.1,8.1,21,0.00,,---,0.00,VWS V13.01,2013-06-19 17:24:00,
2013-06-19 13:29:00,72.1,30.1,29.06,SSW,208,8.1,8.1,21,0.00,,---,0.00,VWS V13.01,2013-06-19 17:29:00,
2013-06-19 13:34:00,73.0,30.8,29.06,SSW,208,8.1,8.1,21,0.00,,---,0.00,VWS V13.01,2013-06-19 17:34:00,
2013-06-19 13:39:00,72.1,27.6,29.06,SSW,208,8.1,8.1,19,0.00,,---,0.00,VWS V13.01,2013-06-19 17:39:00,
2013-06-19 13:44:00,73.0,32.0,29.06,SSW,208,8.1,8.1,22,0.00,,---,0.00,VWS V13.01,2013-06-19 17:44:00,
2013-06-19 13:49:00,73.2,31.0,29.06,SSW,208,8.1,8.1,21,0.00,,---,0.00,VWS V13.01,2013-06-19 17:49:00,
2013-06-19 13:54:00,73.0,28.4,29.06,SSW,208,8.1,8.1,19,0.00,,---,0.00,VWS V13.01,2013-06-19 17:54:00,
2013-06-19 13:59:00,73.9,31.6,29.06,SSW,208,8.1,8.1,21,0.00,,---,0.00,VWS V13.01,2013-06-19 17:59:00,
2013-06-19 14:04:00,74.5,32.0,29.06,SSW,208,8.1,8.1,21,0.00,,---,0.00,VWS V13.01,2013-06-19 18:04:00,
2013-06-19 14:09:00,73.6,27.5,29.06,SSW,208,8.1,8.1,18,0.00,,---,0.00,VWS V13.01,2013-06-19 18:09:00,
2013-06-19 14:14:00,73.8,27.6,29.06,SSW,208,8.1,8.1,18,0.00,,---,0.00,VWS V13.01,2013-06-19 18:14:00,
2013-06-19 14:19:00,72.9,28.2,29.06,SSW,208,8.1,8.1,19,0.00,,---,0.00,VWS V13.01,2013-06-19 18:19:00,
2013-06-19 14:24:00,72.7,30.5,29.06,SSW,208,8.1,8.1,21,0.00,,---,0.00,VWS V13.01,2013-06-19 18:24:00,
2013-06-19 14:29:00,72.7,28.1,29.06,SSW,208,8.1,8.1,19,0.00,,---,0.00,VWS V13.01,2013-06-19 18:29:00,
2013-06-19 14:34:00,71.8,27.3,29.06,SSW,208,8.1,8.1,19,0.00,,---,0.00,VWS V13.01,2013-06-19 18:34:00,
2013-06-19 14:39:00,71.8,29.8,29.06,SSW,208,8.1,8.1,21,0.00,,---,0.00,VWS V13.01,2013-06-19 18:39:00,
2013-06-19 14:44:00,73.2,31.0,29.06,SSW,208,8.1,8.1,21,0.00,,---,0.00,VWS V13.01,2013-06-19 18:44:00,
2013-06-19 14:49:00,73.9,27.8,29.09,SSW,208,8.1,8.1,18,0.00,,---,0.00,VWS V13.01,2013-06-19 18:49:00,
2013-06-19 14:54:00,73.8,27.6,29.09,SSW,208,8.1,8.1,18,0.00,,---,0.00,VWS V13.01,2013-06-19 18:54:00,
2013-06-19 14:59:00,74.7,28.4,29.09,SSW,208,8.1,8.1,18,0.00,,---,0.00,VWS V13.01,2013-06-19 18:59:00,
2013-06-19 15:04:00,74.5,28.2,29.09,SSW,208,8.1,8.1,18,0.00,,---,0.00,VWS V13.01,2013-06-19 19:04:00,
2013-06-19 15:09:00,73.6,27.5,29.09,SSW,208,8.1,8.1,18,0.00,,---,0.00,VWS V13.01,2013-06-19 19:09:00,
2013-06-19 15:14:00,74.3,28.1,29.09,SSW,208,8.1,8.1,18,0.00,,---,0.00,VWS V13.01,2013-06-19 19:14:00,
2013-06-19 15:19:00,74.1,27.9,29.09,SSW,208,8.1,8.1,18,0.00,,---,0.00,VWS V13.01,2013-06-19 19:19:00,
2013-06-19 15:24:00,73.6,27.5,29.09,SSW,208,8.1,8.1,18,0.00,,---,0.00,VWS V13.01,2013-06-19 19:24:00,
2013-06-19 15:29:00,74.5,28.2,29.09,SSW,208,8.1,8.1,18,0.00,,---,0.00,VWS V13.01,2013-06-19 19:29:00,
2013-06-19 15:34:00,75.0,25.8,29.09,SSW,208,8.1,8.1,16,0.00,,---,0.00,VWS V13.01,2013-06-19 19:34:00,
2013-06-19 15:39:00,72.9,24.1,29.09,SSW,208,8.1,8.1,16,0.00,,---,0.00,VWS V13.01,2013-06-19 19:39:00,
2013-06-19 15:44:00,74.8,25.7,29.09,SSW,208,8.1,8.1,16,0.00,,---,0.00,VWS V13.01,2013-06-19 19:44:00,
2013-06-19 15:49:00,75.6,24.7,29.09,SSW,208,8.1,8.1,15,0.00,,---,0.00,VWS V13.01,2013-06-19 19:49:00,
2013-06-19 15:59:00,76.3,25.3,29.09,SSW,208,8.1,8.1,15,0.00,,---,0.00,VWS V13.01,2013-06-19 19:59:00,
2013-06-19 16:04:00,78.3,26.9,29.09,SSW,208,8.1,8.1,15,0.00,,---,0.00,VWS V13.01,2013-06-19 20:04:00,
2013-06-19 16:09:00,78.3,26.9,29.09,SSW,208,8.1,8.1,15,0.00,,---,0.00,VWS V13.01,2013-06-19 20:09:00,
2013-06-19 16:14:00,79.3,27.7,29.09,SSW,208,8.1,8.1,15,0.00,,---,0.00,VWS V13.01,2013-06-19 20:14:00,
2013-06-19 16:19:00,79.0,27.4,29.09,SSW,208,8.1,8.1,15,0.00,,---,0.00,VWS V13.01,2013-06-19 20:19:00,
2013-06-19 16:24:00,75.7,24.9,29.09,SSW,208,8.1,8.1,15,0.00,,---,0.00,VWS V13.01,2013-06-19 20:24:00,
2013-06-19 16:29:00,78.1,26.7,29.09,SSW,208,8.1,8.1,15,0.00,,---,0.00,VWS V13.01,2013-06-19 20:29:00,
2013-06-19 16:34:00,78.1,26.7,29.09,SSW,208,8.1,8.1,15,0.00,,---,0.00,VWS V13.01,2013-06-19 20:34:00,
2013-06-19 16:39:00,82.4,28.5,29.09,SSW,208,8.1,8.1,14,0.00,,---,0.00,VWS V13.01,2013-06-19 20:39:00,
2013-06-19 16:44:00,82.9,28.9,29.09,SSW,208,8.1,8.1,14,0.00,,---,0.00,VWS V13.01,2013-06-19 20:44:00,
2013-06-19 16:49:00,78.8,27.3,29.12,SSW,208,8.1,8.1,15,0.00,,---,0.00,VWS V13.01,2013-06-19 20:49:00,
2013-06-19 16:54:00,81.3,27.6,29.12,SSW,208,8.1,8.1,14,0.00,,---,0.00,VWS V13.01,2013-06-19 20:54:00,
2013-06-19 16:59:00,77.4,26.1,29.12,SSW,208,8.1,8.1,15,0.00,,---,0.00,VWS V13.01,2013-06-19 20:59:00,
2013-06-19 17:04:00,78.4,27.0,29.09,SSW,208,8.1,8.1,15,0.00,,---,0.00,VWS V13.01,2013-06-19 21:04:00,
2013-06-19 17:09:00,77.4,26.1,29.09,SSW,208,8.1,8.1,15,0.00,,---,0.00,VWS V13.01,2013-06-19 21:09:00,
2013-06-19 17:14:00,80.1,28.3,29.09,SSW,208,8.1,8.1,15,0.00,,---,0.00,VWS V13.01,2013-06-19 21:14:00,
2013-06-19 17:19:00,77.4,26.1,29.09,SSW,208,8.1,8.1,15,0.00,,---,0.00,VWS V13.01,2013-06-19 21:19:00,
2013-06-19 17:24:00,76.5,25.4,29.09,SSW,208,8.1,8.1,15,0.00,,---,0.00,VWS V13.01,2013-06-19 21:24:00,
2013-06-19 17:34:00,73.4,24.5,29.09,SSW,208,8.1,8.1,16,0.00,,---,0.00,VWS V13.01,2013-06-19 21:34:00,
2013-06-19 17:39:00,74.5,25.4,29.09,SSW,208,8.1,8.1,16,0.00,,---,0.00,VWS V13.01,2013-06-19 21:39:00,
2013-06-19 17:44:00,75.2,24.4,29.09,SSW,208,8.1,8.1,15,0.00,,---,0.00,VWS V13.01,2013-06-19 21:44:00,
2013-06-19 17:54:00,74.8,25.7,29.09,SSW,208,8.1,8.1,16,0.00,,---,0.00,VWS V13.01,2013-06-19 21:54:00,
2013-06-19 17:59:00,73.9,25.0,29.09,SSW,208,8.1,8.1,16,0.00,,---,0.00,VWS V13.01,2013-06-19 21:59:00,
2013-06-19 18:04:00,73.0,24.2,29.12,SSW,208,8.1,8.1,16,0.00,,---,0.00,VWS V13.01,2013-06-19 22:04:00,
2013-06-19 18:09:00,72.7,23.9,29.12,SSW,208,8.1,8.1,16,0.00,,---,0.00,VWS V13.01,2013-06-19 22:09:00,
2013-06-19 18:14:00,72.7,23.9,29.12,SSW,208,8.1,8.1,16,0.00,,---,0.00,VWS V13.01,2013-06-19 22:14:00,
2013-06-19 18:19:00,71.4,24.4,29.12,SSW,208,8.1,8.1,17,0.00,,---,0.00,VWS V13.01,2013-06-19 22:19:00,
2013-06-19 18:24:00,71.8,23.2,29.12,SSW,208,8.1,8.1,16,0.00,,---,0.00,VWS V13.01,2013-06-19 22:24:00,
2013-06-19 18:29:00,72.1,23.5,29.12,SSW,208,8.1,8.1,16,0.00,,---,0.00,VWS V13.01,2013-06-19 22:29:00,
2013-06-19 18:34:00,72.0,23.4,29.15,SSW,208,8.1,8.1,16,0.00,,---,0.00,VWS V13.01,2013-06-19 22:34:00,
2013-06-19 18:39:00,71.6,23.1,29.15,SSW,208,8.1,8.1,16,0.00,,---,0.00,VWS V13.01,2013-06-19 22:39:00,
2013-06-19 18:44:00,71.6,23.1,29.15,SSW,208,8.1,8.1,16,0.00,,---,0.00,VWS V13.01,2013-06-19 22:44:00,
2013-06-19 18:49:00,71.6,23.1,29.15,SSW,208,8.1,8.1,16,0.00,,---,0.00,VWS V13.01,2013-06-19 22:49:00,
2013-06-19 18:59:00,71.2,24.2,29.15,SSW,208,8.1,8.1,17,0.00,,---,0.00,VWS V13.01,2013-06-19 22:59:00,
2013-06-19 19:04:00,71.2,24.2,29.15,SSW,208,8.1,8.1,17,0.00,,---,0.00,VWS V13.01,2013-06-19 23:04:00,
2013-06-19 19:09:00,70.9,23.9,29.15,SSW,208,8.1,8.1,17,0.00,,---,0.00,VWS V13.01,2013-06-19 23:09:00,
2013-06-19 19:14:00,70.9,23.9,29.15,SSW,208,8.1,8.1,17,0.00,,---,0.00,VWS V13.01,2013-06-19 23:14:00,
2013-06-19 19:19:00,70.7,26.5,29.15,SSW,208,8.1,8.1,19,0.00,,---,0.00,VWS V13.01,2013-06-19 23:19:00,
2013-06-19 19:24:00,70.3,29.7,29.15,SSW,208,8.1,8.1,22,0.00,,---,0.00,VWS V13.01,2013-06-19 23:24:00,
2013-06-19 19:29:00,70.0,29.4,29.15,SSW,208,8.1,8.1,22,0.00,,---,0.00,VWS V13.01,2013-06-19 23:29:00,
2013-06-19 19:34:00,69.6,30.2,29.12,SSW,208,8.1,8.1,23,0.00,,---,0.00,VWS V13.01,2013-06-19 23:34:00,
2013-06-19 19:39:00,69.3,29.9,29.12,SSW,208,8.1,8.1,23,0.00,,---,0.00,VWS V13.01,2013-06-19 23:39:00,
2013-06-19 19:44:00,68.9,29.6,29.12,SSW,208,8.1,8.1,23,0.00,,---,0.00,VWS V13.01,2013-06-19 23:44:00,
2013-06-19 19:49:00,68.5,31.4,29.15,SSW,208,8.1,8.1,25,0.00,,---,0.00,VWS V13.01,2013-06-19 23:49:00,
2013-06-19 19:54:00,68.0,31.9,29.15,SSW,208,8.1,8.1,26,0.00,,---,0.00,VWS V13.01,2013-06-19 23:54:00,
2013-06-19 19:59:00,67.6,32.5,29.15,SSW,208,8.1,8.1,27,0.00,,---,0.00,VWS V13.01,2013-06-19 23:59:00,
2013-06-19 20:04:00,67.3,32.2,29.15,SSW,208,8.1,8.1,27,0.00,,---,0.00,VWS V13.01,2013-06-20 00:04:00,
2013-06-19 20:09:00,66.7,32.6,29.15,SSW,208,8.1,8.1,28,0.00,,---,0.00,VWS V13.01,2013-06-20 00:09:00,
2013-06-19 20:19:00,66.0,33.7,29.15,SSW,208,8.1,8.1,30,0.00,,---,0.00,VWS V13.01,2013-06-20 00:19:00,
2013-06-19 20:24:00,65.7,34.2,29.15,SSW,208,8.1,8.1,31,0.00,,---,0.00,VWS V13.01,2013-06-20 00:24:00,
2013-06-19 20:29:00,64.9,33.6,29.15,SSW,208,8.1,8.1,31,0.00,,---,0.00,VWS V13.01,2013-06-20 00:29:00,
2013-06-19 20:39:00,64.4,34.7,29.15,SSW,208,8.1,8.1,33,0.00,,---,0.00,VWS V13.01,2013-06-20 00:39:00,
2013-06-19 20:44:00,64.2,34.5,29.15,SSW,208,8.1,8.1,33,0.00,,---,0.00,VWS V13.01,2013-06-20 00:44:00,
2013-06-19 20:49:00,64.0,35.1,29.15,SSW,208,8.1,8.1,34,0.00,,---,0.00,VWS V13.01,2013-06-20 00:49:00,
2013-06-19 20:54:00,63.7,34.8,29.15,SSW,208,8.1,8.1,34,0.00,,---,0.00,VWS V13.01,2013-06-20 00:54:00,
2013-06-19 20:59:00,63.5,34.7,29.15,SSW,208,8.1,8.1,34,0.00,,---,0.00,VWS V13.01,2013-06-20 00:59:00,
2013-06-19 21:04:00,62.6,34.6,29.15,SSW,208,8.1,8.1,35,0.00,,---,0.00,VWS V13.01,2013-06-20 01:04:00,
2013-06-19 21:09:00,62.4,34.4,29.15,SSW,208,8.1,8.1,35,0.00,,---,0.00,VWS V13.01,2013-06-20 01:09:00,
2013-06-19 21:14:00,62.2,35.0,29.15,SSW,208,8.1,8.1,36,0.00,,---,0.00,VWS V13.01,2013-06-20 01:14:00,
2013-06-19 21:24:00,61.7,34.5,29.18,SSW,208,8.1,8.1,36,0.00,,---,0.00,VWS V13.01,2013-06-20 01:24:00,
2013-06-19 21:29:00,61.5,35.0,29.18,SSW,208,8.1,8.1,37,0.00,,---,0.00,VWS V13.01,2013-06-20 01:29:00,
2013-06-19 21:34:00,61.3,34.9,29.18,SSW,208,8.1,8.1,37,0.00,,---,0.00,VWS V13.01,2013-06-20 01:34:00,
2013-06-19 21:39:00,61.3,34.9,29.18,SSW,208,8.1,8.1,37,0.00,,---,0.00,VWS V13.01,2013-06-20 01:39:00,
2013-06-19 21:44:00,61.3,34.9,29.18,SSW,208,8.1,8.1,37,0.00,,---,0.00,VWS V13.01,2013-06-20 01:44:00,
2013-06-19 21:49:00,61.0,34.5,29.18,SSW,208,8.1,8.1,37,0.00,,---,0.00,VWS V13.01,2013-06-20 01:49:00,
2013-06-19 21:54:00,60.8,35.1,29.18,SSW,208,8.1,8.1,38,0.00,,---,0.00,VWS V13.01,2013-06-20 01:54:00,
2013-06-19 21:59:00,60.3,35.2,29.18,SSW,208,8.1,8.1,39,0.00,,---,0.00,VWS V13.01,2013-06-20 01:59:00,
2013-06-19 22:04:00,60.1,35.7,29.18,SSW,208,8.1,8.1,40,0.00,,---,0.00,VWS V13.01,2013-06-20 02:04:00,
2013-06-19 22:09:00,60.1,35.7,29.18,SSW,208,8.1,8.1,40,0.00,,---,0.00,VWS V13.01,2013-06-20 02:09:00,
2013-06-19 22:14:00,59.9,35.5,29.18,SSW,208,8.1,8.1,40,0.00,,---,0.00,VWS V13.01,2013-06-20 02:14:00,
2013-06-19 22:19:00,59.9,36.2,29.18,SSW,208,8.1,8.1,41,0.00,,---,0.00,VWS V13.01,2013-06-20 02:19:00,
2013-06-19 22:24:00,59.7,36.0,29.18,SSW,208,8.1,8.1,41,0.00,,---,0.00,VWS V13.01,2013-06-20 02:24:00,
2013-06-19 22:29:00,59.5,35.8,29.18,SSW,208,8.1,8.1,41,0.00,,---,0.00,VWS V13.01,2013-06-20 02:29:00,
2013-06-19 22:34:00,59.4,36.3,29.18,SSW,208,8.1,8.1,42,0.00,,---,0.00,VWS V13.01,2013-06-20 02:34:00,
2013-06-19 22:39:00,59.0,36.6,29.18,SSW,208,8.1,8.1,43,0.00,,---,0.00,VWS V13.01,2013-06-20 02:39:00,
2013-06-19 22:44:00,59.0,36.6,29.18,SSW,208,8.1,8.1,43,0.00,,---,0.00,VWS V13.01,2013-06-20 02:44:00,
2013-06-19 22:49:00,59.0,37.1,29.18,SSW,208,8.1,8.1,44,0.00,,---,0.00,VWS V13.01,2013-06-20 02:49:00,
2013-06-19 22:54:00,58.8,37.5,29.18,SSW,208,8.1,8.1,45,0.00,,---,0.00,VWS V13.01,2013-06-20 02:54:00,
2013-06-19 22:59:00,58.8,37.5,29.18,SSW,208,8.1,8.1,45,0.00,,---,0.00,VWS V13.01,2013-06-20 02:59:00,
2013-06-19 23:04:00,58.6,37.4,29.18,SSW,208,8.1,8.1,45,0.00,,---,0.00,VWS V13.01,2013-06-20 03:04:00,
2013-06-19 23:09:00,58.5,37.2,29.18,SSW,208,8.1,8.1,45,0.00,,---,0.00,VWS V13.01,2013-06-20 03:09:00,
2013-06-19 23:14:00,58.3,37.6,29.18,SSW,208,8.1,8.1,46,0.00,,---,0.00,VWS V13.01,2013-06-20 03:14:00,
2013-06-19 23:19:00,58.1,38.0,29.21,SSW,208,8.1,8.1,47,0.00,,---,0.00,VWS V13.01,2013-06-20 03:19:00,
2013-06-19 23:24:00,58.1,38.0,29.21,SSW,208,8.1,8.1,47,0.00,,---,0.00,VWS V13.01,2013-06-20 03:24:00,
2013-06-19 23:29:00,58.3,38.2,29.21,SSW,208,8.1,8.1,47,0.00,,---,0.00,VWS V13.01,2013-06-20 03:29:00,
2013-06-19 23:34:00,58.5,38.3,29.18,SSW,208,8.1,8.1,47,0.00,,---,0.00,VWS V13.01,2013-06-20 03:34:00,
2013-06-19 23:39:00,58.5,38.3,29.18,SSW,208,8.1,8.1,47,0.00,,---,0.00,VWS V13.01,2013-06-20 03:39:00,
2013-06-19 23:44:00,58.5,38.9,29.18,SSW,208,8.1,8.1,48,0.00,,---,0.00,VWS V13.01,2013-06-20 03:44:00,
2013-06-19 23:49:00,58.6,39.0,29.18,SSW,208,8.1,8.1,48,0.00,,---,0.00,VWS V13.01,2013-06-20 03:49:00,
2013-06-19 23:54:00,58.6,39.0,29.18,SSW,208,8.1,8.1,48,0.00,,---,0.00,VWS V13.01,2013-06-20 03:54:00,
2013-06-19 23:59:00,58.6,39.0,29.18,SSW,208,8.1,8.1,48,0.00,,---,0.00,VWS V13.01,2013-06-20 03:59:00,